星链-2360 (STARLINK-2360 )

导读

STARLINK-2360是美国SpaceX公司星链星座的V1.5批次卫星,于2021年3月14日由猎鹰9号火箭发射。它运行在近地轨道,属于星链第一代组网卫星,配备氪离子霍尔推进器可实现轨道机动与自主避碰,搭载相控阵通信天线,可为全球提供低延迟宽带互联网接入服务。作为星链大规模星座的组成单元,单星设计寿命约5年,退役后会再入大气层完全销毁,减少空间碎片风险,支撑起星链全球覆盖的互联网通信能力。

基本信息
目录编号:
47900
目录名称:
STARLINK-2360
国际标识:
2021-021AS
轨道中心:
EARTH
卫星名称:
星链-2360
卫星全名:
星链-2360 (STARLINK-2360 )
卫星状态:
已陨落 最后检测时间 2024-08-01
发射日期:
2021-03-14 UTC
国别 :
美国 (US)
星等 :
--
该卫星已列入 空间交会检测服务 Space Conjunction Data Service (SCDS) ,当前飞行风险评估等级: 无高风险
轨道信息
数据来源 国际轨道数据
星历时间: 2024-08-02T01:18:03+0800
轨道信息已过期772天
半长轴: 6539.77km
偏心率: 0.0012361
轨道倾角: 53.026°
近地点辐角 319.693°
升交点赤经 302.823°
平近点角 123.486°
近地点: 153.551km
远地点: 169.719km
周期: 87.721分钟
每日圈数: 16.415689
详细信息
固有亮度:
5
最大亮度:
2.5
卫星平台:
Starlink V1.0
覆盖范围:
全球
运营商:
太空探索技术公司
运营商所在国:
美国
制造商(研发单位):
太空探索技术公司
制造商所在国:
美国
使用方式:
暂无
卫星简介
星链(Starlink)计划是由太空探索技术公司(SpaceX)提出的一个巨型低轨卫星互联网星座项目,计划在2019年至2024年间在太空搭建由约1.2万颗卫星组成的“星链”网络,其中1584颗将部署在地球上空550千米处的近地轨道,并从2020年开始工作。该卫星仍在工作。
与全量物体交会距离演化趋势
与全量物体交会风险概率演化趋势